Middlebury State AP, Middlebu, VT

5:29 AM EST on December 09, 2019 (GMT -0500)
Middlebury State AP, Middlebu

Weather History for K6B0 - October, 2019

Change the Weather History Date:

Tuesday, October 15, 2019

  Actual Average (WUND) Record (WUND)
Temperature  
Mean Temperature 45 °F -  
Max Temperature 57 °F - - (-1)
Min Temperature 33 °F - - (-1)
Degree Days  
Heating Degree Days 20    
Moisture  
Dew Point 35 °F    
Average Humidity 72    
Maximum Humidity 96    
Minimum Humidity 38    
Precipitation  
Precipitation 0.00 in - - ()
Sea Level Pressure  
Sea Level Pressure 30.08 in    
Wind  
Wind Speed 1 mph ()    
Max Wind Speed 9 mph    
Max Gust Speed -    
Visibility 10.0 miles    
Events      
Averages and records for this station are not official NWS values.
T = Trace of Precipitation, MM = Missing Value Source: Averaged Metar Reports

Daily Weather History Graph

Daily Weather History Graph

Search for Another Location

Airport or City:

Astronomy

Oct. 15, 2019 Rise Set
Actual Time 7:06 AM EDT 6:09 PM EDT
Civil Twilight 6:37 AM EDT 6:38 PM EDT
Nautical Twilight 6:04 AM EDT 7:11 PM EDT
Astronomical Twilight 5:30 AM EDT 7:44 PM EDT
Moon 7:25 PM EDT (10/15) 8:36 AM EDT (10/15)
Length of Visible Light 12h 00m
Length of Day
11h 02m
Full, 97% of the Moon is Illuminated
Oct 15
Full
Oct 21
Last Quarter
Oct 27
New
Nov 4
First Quarter
Nov 12
Full

Hourly Weather History & Observations

Time (EDT) Temp. Windchill Dew Point Humidity Pressure Visibility Wind Dir Wind Speed Gust Speed Precip Events Conditions
12:16 AM 41.7 °F - 35.1 °F 77% 30.05 in 10.0 mi Calm Calm - N/A   Scattered Clouds
12:35 AM 41.0 °F - 35.1 °F 79% 30.04 in 10.0 mi Calm Calm - N/A   Clear
12:36 AM 40.8 °F - 35.1 °F 80% 30.04 in 10.0 mi Calm Calm - N/A   Clear
12:55 AM 39.6 °F - 35.1 °F 84% 30.05 in 10.0 mi Calm Calm - N/A   Clear
12:56 AM 39.4 °F - 35.2 °F 85% 30.05 in 10.0 mi Calm Calm - N/A   Clear
1:18 AM 39.2 °F - 35.1 °F 85% 30.05 in 10.0 mi Calm Calm - N/A   Clear
1:36 AM 36.1 °F - 33.8 °F 91% 30.05 in 10.0 mi Calm Calm - N/A   Clear
1:56 AM 37.6 °F - 34.5 °F 89% 30.05 in 10.0 mi Calm Calm - N/A   Clear
2:15 AM 38.3 °F - 34.9 °F 87% 30.06 in 10.0 mi Calm Calm - N/A   Clear
2:16 AM 38.3 °F - 34.9 °F 87% 30.06 in 10.0 mi Calm Calm - N/A   Clear
2:35 AM 37.8 °F - 34.9 °F 89% 30.06 in 10.0 mi Calm Calm - N/A   Clear
2:39 AM 37.8 °F - 34.5 °F 88% 30.06 in 10.0 mi Calm Calm - N/A   Clear
2:57 AM 38.1 °F - 35.2 °F 89% 30.07 in 10.0 mi Calm Calm - N/A   Clear
3:15 AM 38.8 °F 36.5 °F 35.2 °F 87% 30.07 in 10.0 mi ESE 3.5 mph - N/A   Mostly Cloudy
3:35 AM 41.9 °F - 35.2 °F 77% 30.07 in 10.0 mi Calm Calm - N/A   Overcast
3:36 AM 41.9 °F - 35.2 °F 77% 30.07 in 10.0 mi Calm Calm - N/A   Overcast
3:55 AM 41.0 °F 39.0 °F 35.6 °F 81% 30.08 in 10.0 mi SSE 3.5 mph - N/A   Overcast
3:59 AM 40.5 °F - 35.6 °F 83% 30.08 in 10.0 mi Calm Calm - N/A   Overcast
4:17 AM 39.6 °F - 36.0 °F 87% 30.09 in 10.0 mi Calm Calm - N/A   Scattered Clouds
4:36 AM 39.2 °F 37.0 °F 34.9 °F 84% 30.09 in 10.0 mi SE 3.5 mph - N/A   Clear
4:55 AM 38.3 °F - 34.7 °F 87% 30.10 in 10.0 mi Calm Calm - N/A   Clear
4:56 AM 37.9 °F - 34.5 °F 87% 30.10 in 10.0 mi Calm Calm - N/A   Clear
5:15 AM 36.7 °F - 34.3 °F 91% 30.10 in 10.0 mi Calm Calm - N/A   Clear
5:16 AM 36.7 °F - 34.3 °F 91% 30.10 in 10.0 mi Calm Calm - N/A   Clear
5:38 AM 36.3 °F - 34.5 °F 93% 30.11 in 10.0 mi Calm Calm - N/A   Clear
5:56 AM 36.1 °F - 34.5 °F 94% 30.11 in 10.0 mi Calm Calm - N/A   Clear
6:16 AM 33.6 °F - 32.2 °F 94% 30.11 in 10.0 mi Calm Calm - N/A   Clear
6:35 AM 35.8 °F - 34.5 °F 95% 30.12 in 10.0 mi Calm Calm - N/A   Clear
6:36 AM 35.8 °F - 34.3 °F 94% 30.12 in 10.0 mi Calm Calm - N/A   Clear
6:55 AM 35.1 °F - 34.0 °F 96% 30.12 in 10.0 mi Calm Calm - N/A   Clear
7:00 AM 35.1 °F - 33.8 °F 95% 30.13 in 10.0 mi Calm Calm - N/A   Clear
7:17 AM 34.2 °F - 32.9 °F 95% 30.13 in 10.0 mi Calm Calm - N/A   Clear
7:37 AM 35.2 °F - 34.2 °F 96% 30.13 in 10.0 mi Calm Calm - N/A   Clear
7:55 AM 35.1 °F 32.2 °F 33.8 °F 95% 30.13 in 10.0 mi ESE 3.5 mph - N/A   Clear
8:15 AM 38.3 °F - 35.2 °F 89% 30.13 in 10.0 mi Calm Calm - N/A   Clear
8:35 AM 39.4 °F 37.2 °F 36.3 °F 89% 30.14 in 10.0 mi South 3.5 mph - N/A   Clear
8:39 AM 40.6 °F 38.6 °F 37.6 °F 89% 30.14 in 10.0 mi South 3.5 mph - N/A   Clear
8:55 AM 41.7 °F 39.8 °F 37.6 °F 85% 30.14 in 10.0 mi South 3.5 mph - N/A   Clear
10:36 AM - - - N/A% - - North - - N/A   Unknown
11:38 AM - - - N/A% - - North - - N/A   Unknown
11:55 AM - - - N/A% - - North - - N/A   Unknown
11:56 AM - - - N/A% - - North - - N/A   Unknown
12:15 PM - - - N/A% - - North - - N/A   Unknown
1:47 PM - - - N/A% - - North - - N/A   Unknown
1:56 PM - - - N/A% - - North - - N/A   Unknown
2:15 PM 55.9 °F - 33.1 °F 42% 30.09 in 10.0 mi SSE 3.5 mph - N/A   Unknown
2:16 PM 55.8 °F - 32.9 °F 42% 30.09 in 10.0 mi South 6.9 mph - N/A   Unknown
2:35 PM 57.0 °F - 32.9 °F 40% 30.08 in 10.0 mi SW 4.6 mph - N/A   Scattered Clouds
2:39 PM 56.7 °F - 31.5 °F 38% 30.08 in 10.0 mi WSW 5.8 mph - N/A   Scattered Clouds
2:55 PM 56.3 °F - 33.6 °F 42% 30.08 in 10.0 mi SSE 5.8 mph - N/A   Clear
2:56 PM 56.3 °F - 33.6 °F 42% 30.08 in 10.0 mi SE 4.6 mph - N/A   Clear
3:18 PM 56.1 °F - 31.3 °F 39% 30.06 in 10.0 mi South 3.5 mph - N/A   Clear
3:36 PM 56.5 °F - 31.3 °F 38% 30.06 in 10.0 mi SSW 5.8 mph - N/A   Clear
3:56 PM 56.3 °F - 31.8 °F 39% 30.05 in 10.0 mi South 5.8 mph - N/A   Clear
4:15 PM 56.5 °F - 32.7 °F 41% 30.05 in 10.0 mi South 9.2 mph - N/A   Clear
4:35 PM 55.8 °F - 32.5 °F 41% 30.04 in 10.0 mi South 8.1 mph - N/A   Clear
4:39 PM 55.9 °F - 32.7 °F 41% 30.04 in 10.0 mi South 9.2 mph - N/A   Clear
4:58 PM 55.0 °F - 33.3 °F 44% 30.04 in 10.0 mi South 9.2 mph - N/A   Clear
5:16 PM 54.7 °F - 33.1 °F 44% 30.05 in 10.0 mi South 8.1 mph - N/A   Clear
5:35 PM 53.1 °F - 34.3 °F 49% 30.05 in 10.0 mi South 5.8 mph - N/A   Clear
5:55 PM 52.5 °F - 34.5 °F 50% 30.05 in 10.0 mi Calm Calm - N/A   Clear
6:19 PM 50.9 °F - 34.2 °F 53% 30.05 in 10.0 mi SE 3.5 mph - N/A   Clear
6:37 PM 49.3 °F - 35.1 °F 58% 30.05 in 10.0 mi SE 3.5 mph - N/A   Clear
6:56 PM 49.1 °F - 34.9 °F 58% 30.05 in 10.0 mi SSE 3.5 mph - N/A   Clear
7:15 PM 47.7 °F - 35.2 °F 62% 30.05 in 10.0 mi Calm Calm - N/A   Clear
7:16 PM 47.3 °F - 35.2 °F 63% 30.05 in 10.0 mi Calm Calm - N/A   Clear
7:35 PM 46.6 °F - 35.2 °F 65% 30.06 in 10.0 mi SSE 3.5 mph - N/A   Clear
7:58 PM 47.8 °F - 35.4 °F 62% 30.05 in 10.0 mi SSE 3.5 mph - N/A   Clear
8:35 PM 49.1 °F - 35.2 °F 59% 30.05 in 10.0 mi SSE 4.6 mph - N/A   Clear
8:55 PM 48.4 °F - 35.2 °F 60% 30.05 in 10.0 mi SSE 4.6 mph - N/A   Clear
8:56 PM 48.6 °F - 35.2 °F 60% 30.05 in 10.0 mi South 3.5 mph - N/A   Clear
9:18 PM 47.7 °F - 35.1 °F 62% 30.06 in 10.0 mi SSE 4.6 mph - N/A   Clear
9:36 PM 46.8 °F - 35.8 °F 66% 30.07 in 10.0 mi SSE 3.5 mph - N/A   Clear
9:56 PM 45.0 °F - 35.4 °F 69% 30.07 in 10.0 mi Calm Calm - N/A   Clear
10:15 PM 43.9 °F 42.3 °F 35.1 °F 71% 30.07 in 10.0 mi South 3.5 mph - N/A   Clear
10:16 PM 44.1 °F 42.5 °F 35.1 °F 71% 30.07 in 10.0 mi South 3.5 mph - N/A   Clear
10:35 PM 45.1 °F - 36.3 °F 71% 30.08 in 10.0 mi Calm Calm - N/A   Clear
10:39 PM 44.2 °F - 36.3 °F 74% 30.08 in 10.0 mi Calm Calm - N/A   Clear
10:57 PM 43.2 °F - 36.5 °F 77% 30.07 in 10.0 mi Calm Calm - N/A   Clear
11:15 PM 42.4 °F - 36.5 °F 79% 30.06 in 10.0 mi Calm Calm - N/A   Clear
11:35 PM 42.3 °F - 36.3 °F 79% 30.05 in 10.0 mi Calm Calm - N/A   Clear
11:55 PM 42.3 °F 40.5 °F 35.8 °F 78% 30.05 in 10.0 mi SSE 3.5 mph - N/A   Clear